Regional Weather Roundup
Issued by NWS

Home | Current Version | Previous Version | Text Only | Print | Product List | Glossary On
Versions: 1 2 3 4 5 6 7 8 9 10 11 12 13 14 15 16 17 18 19 20 21 22 23 24 25 26 27 28 29 30 31 32 33 34 35 36 37 38 39 40 41 42 43 44 45 46 47 48 49 50
000
ASUS45 KBOI 300510
RWRID

IDAHO REGIONAL WEATHER ROUNDUP
NATIONAL WEATHER SERVICE BOISE ID
1100 PM MDT WED MAR 29 2017

NOTE: "FAIR" INDICATES FEW OR NO CLOUDS BELOW 12000 FEET
WITH NO SIGNIFICANT WEATHER AND/OR OBSTRUCTIONS TO VISIBILITY

IDZ012-014-300600-
SOUTHWEST IDAHO


CITY           SKY/WX    TMP DP  RH WIND       PRES   REMARKS
BOISE          LGT RAIN  50  47  89 SE6       29.95F
CALDWELL       LGT RAIN  51  49  92 SE8       29.94F
MOUNTAIN HOME  LGT RAIN  52 N/A N/A E6        29.95F
$$

IDZ016-017-300600-
SOUTHCENTRAL IDAHO


CITY           SKY/WX    TMP DP  RH WIND       PRES   REMARKS
BURLEY         CLOUDY    52  39  61 S15       29.92F
JEROME         LGT RAIN  47  44  90 N10       29.97S
TWIN FALLS     LGT RAIN  48  44  86 W8        29.97R
$$

IDZ019>023-300600-
SOUTHEAST IDAHO


CITY           SKY/WX    TMP DP  RH WIND       PRES   REMARKS
IDAHO FALLS    CLOUDY    48  38  68 S14       29.98F
POCATELLO      CLOUDY    50  36  58 S17       29.97F
REXBURG        LGT RAIN  46  40  79 S7        29.97F
$$

IDZ006-010-011-018-031-032-300600-
CENTRAL IDAHO MOUNTAINS


CITY           SKY/WX    TMP DP  RH WIND       PRES   REMARKS
MCCALL         LGT RAIN  37  34  89 N8        29.92F WCI  31
HAILEY         LGT RAIN  41  39  93 W5        29.99F
STANLEY          N/A     36  35  96 SE5       29.95F WCI  32
SALMON         CLOUDY    43  43 100 CALM      29.91F
CHALLIS        CLOUDY    44  39  82 N8        29.90F
$$

IDZ002-004-006-007-026-300600-
NORTHERN IDAHO


CITY           SKY/WX    TMP DP  RH WIND       PRES   REMARKS
LEWISTON       LGT RAIN  50  45  83 SW3       29.88S
LOWELL           N/A     45  43  93 CALM      29.94F
COEUR D`ALENE  CLOUDY    48  43  82 SW10      29.83F
MULLAN PASS    LGT RAIN  34  34 100 SW8G20    29.83S VSB 3/4 WCI  27
$$



USA.gov is the U.S. government's official web portal to all federal, state and local government web resources and services.